Tracking 18850 objects as of 22-Nov-2017
HD Live streaming from Space Station
objects crossing your sky now

FENGYUN 1C DEB

Track FENGYUN 1C DEB now!
10-day predictions


NORAD ID: 31316
Int'l Code: 1999-025BPU
Perigee: 785.7 km
Apogee: 959.0 km
Inclination: 99.0 °
Period: 102.3 minutes
Semi major axis: 7243 km
RCS: 0.0146 m2 (small)
Launch date: May 10, 1999
Source: People's Republic of China (PRC)
Launch site: Taiyaun Space Center, China (TSC)

Note: This is SATELLITE DEBRIS
aabbcc
Your satellite tracking list
Your tracking list is empty




NASA's NSSDC Master Catalog

Two Line Element Set (TLE):
1 31316U 99025BPU 17324.88877531  .00001000  00000-0  57331-3 0  9996
2 31316  99.0452   6.7417 0119613 284.4678  74.3244 14.08284663547002
Source of the keplerian elements: AFSPC